Home   Weather   Weinheim   Past weeks

Flag for Germany Past Weather in Weinheim, Baden-Württemberg, Germany — Yesterday and Last 2 Weeks

Now
70 °F

Mild.


Feels Like: 70 °F
Forecast: 50 / 72 °F
Wind: 1 mph from North

Location: Mannheim City

Current Time: Sep 27, 2016 at 7:15:51 PM

Latest Report: Sep 27, 2016 at 6:20 PM


Visibility: N/A

Pressure: 30.30 "Hg

Humidity: 60%

Dew Point: 55 °F

Location of WeinheimLocation

Past Weather in Weinheim — Graph

°F

Weinheim Temperature Yesterday

Maximum temperature yesterday: 70 °F (at 2:50 PM)
Minimum temperature yesterday: 57 °F (at 7:20 AM)
Average temperature yesterday: 65 °F

High & Low Weather Summary for the Past Weeks

 TemperatureHumidityPressure
High91 °F (Sep 13, 4:50 PM)100% (Sep 13, 5:50 AM)30.33 "Hg (Sep 13, 5:50 AM)
Low45 °F (Sep 22, 5:50 AM)24% (Sep 14, 4:50 PM)29.80 "Hg (Sep 15, 5:50 AM)
Average67 °F67%30.07 "Hg
* Reported Sep 12 5:20 PM — Sep 27 5:50 PM, Weinheim, Weather by CustomWeather, © 2016

Note: Actual official high and low records may vary slightly from our data, if they occured in-between our weather recording intervals... More about our weather records

Advertising

Weinheim Weather History for the Previous 24 Hours

Scroll right to see more
 ConditionsComfort  
Time TempWeatherWind HumidityBarometerVisibility
5:50 PM
Tue, Sep 27
70 °FSunny.1 mph60%30.30 "Hg10 mi
5:20 PM70 °FSunny.3 mph64%30.30 "Hg10 mi
4:50 PM68 °FSunny.3 mph64%30.30 "Hg10 mi
4:20 PM68 °FPassing clouds.5 mph69%30.30 "HgN/A
3:50 PM68 °FSunny.5 mph73%30.30 "Hg10 mi
3:20 PM66 °FPartly sunny.3 mph78%30.33 "HgN/A
2:50 PM66 °FBroken clouds.5 mph83%30.33 "HgN/A
2:20 PM66 °FBroken clouds.5 mph83%30.33 "HgN/A
1:50 PM66 °FBroken clouds.5 mph78%30.33 "HgN/A
1:20 PM66 °FPartly sunny.2 mph73%30.30 "HgN/A
12:50 PM66 °FScattered clouds.3 mph78%30.30 "HgN/A
12:20 PM64 °FScattered clouds.3 mph83%30.30 "Hg5 mi
11:50 AM63 °FBroken clouds.3 mph94%30.30 "HgN/A
11:20 AM61 °FBroken clouds.7 mph100%30.30 "Hg5 mi
10:50 AM61 °FPartly sunny.3 mph100%30.30 "Hg6 mi
10:20 AM61 °FPartly sunny.1 mph100%30.30 "HgN/A
9:50 AM59 °FPartly sunny.3 mph100%30.30 "HgN/A
9:20 AM59 °FScattered clouds.2 mph100%30.30 "HgN/A
8:50 AM59 °FPartly sunny.1 mph100%30.27 "Hg5 mi
8:20 AM59 °FLight rain. Broken clouds.2 mph100%30.27 "Hg5 mi
7:50 AM59 °FLight rain. Broken clouds.2 mph100%30.27 "Hg5 mi
7:20 AM59 °FLight rain. Partly sunny.1 mph100%30.24 "Hg5 mi
6:50 AM59 °FLight rain. Partly cloudy.3 mph100%30.24 "Hg4 mi
6:20 AM57 °FLight rain. Partly cloudy.3 mph100%30.24 "Hg4 mi
5:50 AM59 °FThundershowers. Partly cloudy.2 mph100%30.21 "Hg5 mi
10:50 PM
Mon, Sep 26
63 °FClear.3 mph73%30.21 "Hg10 mi
10:20 PM64 °FClear.5 mph68%30.21 "Hg10 mi
9:50 PM64 °FClear.3 mph73%30.21 "Hg10 mi
9:20 PM64 °FClear.3 mph73%30.21 "Hg10 mi
8:50 PM66 °FPartly cloudy.3 mph68%30.18 "HgN/A
8:20 PM66 °FPassing clouds.3 mph68%30.18 "HgN/A
7:50 PM68 °FPartly cloudy.5 mph64%30.18 "HgN/A
7:20 PM68 °FPassing clouds.6 mph64%30.18 "HgN/A
Weather by CustomWeather, © 2016

See weather overviewHow to use our weather pages